Location: Oulou
(10.7667°N, 12.5167°W)
Time: 21:27:50
(UTC+00:00)

Cosmos 2074 Rocket - Pass Details

Date: 20 September 2019
Orbit: 966 x 987 km, 82.9° (Epoch: 15 October)

Event Time Altitude Azimuth Distance (km) Brightness Sun altitude
Rises 19:21:58 0° 5° (N) 3,651 7.0 -9.3°
Reaches altitude 10° 19:24:34 10° 11° (N) 2,702 6.3 -9.9°
Maximum altitude 19:30:32 51° 86° (E) 1,203 4.1 -11.4°
Drops below altitude 10° 19:36:29 10° 160° (SSE) 2,699 6.1 -12.8°
Sets 19:39:03 0° 165° (SSE) 3,646 6.8 -13.5°
